Theta_e
304 304 304 305 305 305 306 306 306 306 305 305 307 309 311 312 311 304 305 311 304 298 299 302 303 298 297 295 290 295 292 295 292 288 288 289 287 290 289 292 289 287 286 285 286 283 282 300 299 292 296 299 298 296
304 304 304 305 305 305 305 306 306 305 305 305 306 308 310 311 311 306 302 310 309 300 298 304 304 305 303 302 298 297 294 293 294 290 289 290 288 287 288 284 296 287 292 288 288 288 298 302 301 302 299 296 298 297
304 304 304 304 305 305 306 306 306 305 305 305 305 307 309 310 311 307 304 307 305 299 298 300 300 307 309 305 306 295 297 298 296 297 292 290 284 289 283 287 291 295 298 292 292 297 298 300 299 300 300 300 300 297
304 304 303 304 304 305 306 306 306 306 305 305 305 307 308 309 311 307 303 306 303 297 291 296 308 305 309 307 306 304 300 301 298 296 292 288 286 292 290 291 290 292 294 292 292 296 298 299 298 299 301 300 297 297
304 303 303 303 304 305 305 306 306 306 306 305 305 307 308 309 310 307 306 305 305 298 291 293 299 304 306 305 304 303 301 297 295 291 289 288 290 292 293 292 289 295 293 289 287 295 294 294 298 300 297 295 296 295
303 303 303 304 304 305 305 306 306 306 305 305 306 307 308 309 307 303 297 303 304 303 294 289 300 301 304 304 302 300 299 297 295 292 290 292 296 294 287 286 295 297 299 298 292 295 295 296 296 296 295 295 296 296
303 304 304 304 304 304 305 306 306 305 305 306 306 307 308 307 305 299 298 302 305 305 295 290 291 301 303 302 301 299 299 297 294 292 290 291 293 296 290 286 296 298 300 297 296 294 291 293 291 295 295 296 298 296
303 303 304 304 304 304 305 306 306 305 305 306 307 308 308 305 303 300 303 305 305 299 297 290 289 295 303 296 295 300 296 296 293 291 295 293 294 294 287 295 298 299 297 294 293 294 292 293 294 294 295 294 291 291
302 303 304 305 304 305 305 306 306 305 305 306 307 306 303 301 298 299 306 305 304 298 291 290 287 286 301 298 298 297 298 290 297 292 293 293 291 286 294 297 297 293 291 291 293 294 293 292 293 293 292 291 291 291
302 303 304 304 304 305 305 306 306 306 305 306 304 299 294 299 306 305 298 294 293 294 293 288 294 289 295 296 294 293 294 290 288 292 296 291 290 298 300 298 295 294 295 293 290 289 291 291 292 291 291 292 293 291
301 302 304 304 304 304 306 306 306 306 306 301 296 292 300 306 300 297 291 289 290 288 292 291 293 290 298 290 291 293 291 292 288 290 290 289 288 295 299 296 296 295 295 294 294 294 293 292 291 291 292 293 292 290
301 302 303 304 304 305 306 306 306 303 300 300 299 301 299 295 293 289 288 290 289 287 293 291 293 294 296 297 292 292 290 292 286 296 290 288 291 297 296 296 295 295 295 295 296 295 294 293 293 293 293 292 291 291
301 302 303 303 304 305 305 305 305 304 304 302 298 294 292 291 284 285 283 286 287 293 295 295 293 295 295 295 291 292 289 288 296 290 287 292 296 296 295 295 295 296 296 296 295 294 294 293 294 294 292 293 293 291
301 302 303 303 304 305 305 305 305 303 300 293 291 285 287 286 288 290 291 294 297 297 296 296 295 293 294 291 292 289 293 293 287 286 287 293 294 295 295 296 295 295 296 295 295 294 292 292 293 294 294 293 292 291
301 302 303 303 304 304 304 305 305 303 297 292 291 286 289 293 296 298 300 298 299 300 298 296 294 294 292 291 293 291 288 286 287 287 291 294 295 294 294 295 295 295 295 294 294 294 293 293 292 292 293 292 291 292
301 302 302 304 305 305 304 304 301 300 296 293 291 289 293 293 295 297 298 296 299 301 299 297 291 289 289 291 289 288 287 285 289 293 295 296 294 294 294 296 296 297 296 294 294 295 294 293 292 292 293 292 291 291
300 299 304 305 305 305 304 299 298 293 292 290 289 294 294 294 296 298 299 300 303 299 294 293 289 289 295 289 288 293 289 292 296 295 297 296 294 294 295 297 297 298 296 294 294 294 294 294 294 293 291 292 291 291
297 301 304 304 305 301 298 298 294 291 287 291 290 294 298 299 298 299 299 299 298 299 296 293 296 291 289 287 289 294 297 298 298 296 295 296 296 296 297 295 297 297 296 296 296 295 294 292 291 291 291 291 291 290
299 300 302 303 303 297 292 293 294 287 289 293 296 297 298 299 299 300 302 303 304 304 299 296 292 290 291 296 295 297 298 298 295 296 297 297 297 296 297 298 297 295 294 294 293 294 294 293 292 292 291 291 290 289
300 301 302 302 302 294 287 288 293 290 290 295 298 297 298 299 300 301 301 302 301 298 295 292 292 295 296 299 300 300 301 301 297 295 294 294 296 297 297 296 295 296 295 294 293 293 293 292 292 292 291 290 290 288
300 301 301 301 297 295 292 290 290 291 294 294 298 299 297 300 299 298 299 303 298 296 293 296 296 298 302 302 303 302 302 302 299 298 296 293 295 295 295 295 296 295 293 293 292 291 291 290 292 293 292 291 290 290
299 301 297 298 293 292 291 293 292 294 293 294 295 298 295 294 295 297 299 297 296 297 298 299 299 300 300 301 302 303 303 302 300 296 296 295 294 294 294 295 294 293 292 292 292 291 291 290 292 293 293 292 291 290
300 299 295 295 289 287 288 296 291 293 289 292 295 292 292 292 296 300 295 297 298 302 302 301 302 303 301 303 304 304 304 302 300 297 297 296 296 296 295 295 295 293 292 292 293 292 291 290 290 291 292 292 291 290
300 293 289 288 289 287 293 290 293 290 292 290 290 289 292 293 298 294 291 294 297 301 301 302 301 300 301 302 301 301 303 302 301 298 298 296 294 294 296 295 295 295 294 294 293 293 292 292 292 291 291 291 291 290
287 288 288 285 291 289 287 287 288 288 286 289 289 289 293 298 292 291 292 296 299 300 301 301 301 300 298 300 301 302 304 302 300 297 298 297 295 295 295 295 295 295 296 294 292 292 291 292 291 291 291 290 289 291
284 288 286 288 289 289 288 286 286 287 289 289 290 293 296 293 290 289 294 297 300 301 302 302 301 300 300 302 300 301 302 304 302 298 297 297 296 294 293 292 291 292 296 295 294 293 292 292 291 292 291 291 287 290
285 287 291 296 294 293 292 293 294 292 289 288 291 290 290 287 288 291 297 299 299 300 302 303 304 303 301 301 303 304 304 304 303 299 298 297 296 296 296 294 292 293 296 295 294 293 292 291 291 291 291 291 290 289
290 292 288 291 292 294 290 291 290 289 290 294 293 289 289 289 287 294 297 300 301 302 302 303 306 305 304 304 302 303 302 303 300 298 298 297 297 294 292 291 290 286 290 290 292 292 292 291 291 291 290 289 290 289
291 295 294 290 291 291 291 290 291 295 298 296 292 291 290 294 295 294 296 299 300 301 299 300 302 304 303 303 303 303 300 298 295 293 291 290 290 291 293 292 292 291 288 287 283 287 290 289 289 289 290 289 289 288
290 295 292 291 289 288 292 296 297 300 301 299 297 296 295 293 292 293 292 293 294 296 297 298 301 300 299 299 298 299 302 301 299 296 292 291 291 292 293 294 293 292 291 290 289 287 281 286 287 290 289 287 286 286
295 295 292 292 291 294 298 299 298 297 296 294 296 294 291 290 291 291 289 289 292 295 296 297 299 300 299 298 297 295 295 300 301 299 297 296 296 296 295 294 294 293 293 292 291 290 289 288 288 287 286 285 285 284
294 292 291 289 292 296 298 294 293 291 291 290 290 292 292 291 288 289 289 289 291 292 290 294 299 299 300 299 295 295 291 299 297 297 297 297 296 296 294 293 294 293 291 289 289 288 287 286 285 284 283 283 282 282
291 291 292 289 290 290 292 292 290 287 289 288 288 290 290 289 285 288 292 292 290 290 291 292 293 293 293 291 290 288 287 287 286 285 286 286 287 290 293 292 291 290 288 286 285 284 283 282 282 282 281 280 280 279
Wind_Speed
15 15 15 16 15 13 11 13 16 14 12 12 14 13 10 6 3 1 4 2 2 3 9 5 7 4 2 3 2 4 4 4 2 2 3 3 3 3 3 2 4 3 3 3 4 5 5 8 5 4 5 3 4 3
15 15 14 15 14 14 14 14 14 13 11 10 12 13 10 8 5 4 3 3 2 1 5 8 9 9 7 4 3 1 3 2 2 3 3 4 3 3 3 2 2 2 2 2 4 3 6 3 2 5 5 6 6 6
17 16 14 13 14 15 14 14 13 12 12 10 10 12 9 9 7 8 2 1 1 2 6 4 7 6 5 3 6 4 0 3 5 3 2 3 4 3 2 3 4 4 4 3 3 2 7 6 5 6 9 11 7 7
16 15 14 13 14 15 15 15 12 12 11 10 9 10 9 9 6 8 1 3 3 2 2 5 3 3 6 8 5 4 6 5 4 2 1 3 3 3 3 5 7 6 4 2 5 7 5 10 7 7 11 5 6 8
15 14 13 13 15 15 16 16 11 12 11 11 9 10 9 9 7 4 2 2 3 1 2 5 12 7 9 8 9 8 7 5 2 2 2 3 4 3 4 4 5 1 3 1 1 2 2 4 4 4 5 8 8 8
15 15 15 14 15 14 15 15 12 9 11 8 8 8 8 11 13 3 0 2 2 1 1 3 4 3 8 9 8 9 6 3 2 2 3 4 6 1 3 3 4 4 9 7 2 3 2 7 5 11 11 10 8 8
15 15 15 16 15 15 15 14 11 8 8 7 7 8 11 16 4 1 1 2 6 2 1 3 3 2 8 7 4 4 5 3 2 2 3 4 3 6 3 3 7 4 8 3 1 3 5 7 5 8 8 9 9 9
14 15 15 15 14 14 15 14 11 7 6 8 7 11 9 15 9 2 3 8 3 1 2 2 4 3 6 2 2 1 3 4 4 3 4 4 3 4 4 5 7 5 6 7 8 8 6 7 8 7 6 8 10 10
15 16 14 13 13 14 16 13 9 7 6 11 14 16 4 2 2 2 9 7 2 2 2 2 2 2 3 4 3 3 1 2 1 4 4 2 2 4 1 2 3 7 5 6 7 7 7 6 7 7 9 10 10 11
15 16 15 12 13 14 15 10 7 6 7 14 1 2 2 1 16 12 2 1 0 1 1 4 4 3 2 2 2 3 1 2 3 6 2 3 4 4 4 2 7 6 6 6 5 7 7 7 7 10 9 10 10 10
15 16 17 12 14 15 12 8 3 5 9 0 2 2 1 10 1 1 2 3 4 4 5 4 4 4 1 1 2 3 2 3 2 2 3 3 1 2 2 7 7 7 7 6 7 7 6 8 8 8 9 11 10 10
15 15 15 13 13 13 9 8 3 4 1 3 3 4 2 1 2 3 4 3 4 3 6 3 4 3 2 1 2 3 3 2 4 2 3 1 1 10 6 8 8 7 6 8 8 9 9 9 9 8 9 8 10 9
15 14 14 12 12 11 5 6 6 9 4 1 2 4 3 3 4 5 6 4 4 4 4 3 3 4 2 3 3 3 4 4 3 3 1 3 5 7 7 6 6 7 8 8 8 7 9 11 9 9 8 5 5 10
15 14 14 12 10 7 4 1 14 5 2 2 2 4 4 5 6 6 6 2 3 3 6 5 3 2 3 3 4 3 3 1 3 0 3 2 6 7 7 6 6 7 7 9 6 6 10 7 7 8 7 8 9 8
16 16 15 14 11 7 3 4 11 0 1 2 2 4 8 8 8 5 6 4 5 5 6 4 3 2 2 2 2 3 3 4 3 3 3 3 8 8 7 6 6 6 6 5 5 5 7 4 7 5 6 8 13 11
16 18 6 9 5 6 3 8 2 1 0 2 3 4 6 6 5 8 2 5 5 5 4 3 3 3 4 3 3 4 2 2 3 3 4 6 8 7 6 5 4 5 6 5 5 5 5 6 6 5 5 7 11 12
13 4 6 3 6 6 6 2 1 2 2 3 5 6 8 8 3 3 2 2 4 5 2 3 4 3 2 3 2 3 1 1 3 5 6 7 7 7 5 5 5 5 4 5 5 5 5 5 5 5 8 5 9 10
4 4 10 8 5 3 1 1 0 2 5 5 5 5 3 3 3 2 3 3 2 3 3 2 2 3 3 2 1 2 2 4 4 7 5 6 7 7 5 6 5 4 5 5 3 4 5 6 5 4 6 7 6 9
7 8 12 8 2 3 1 1 1 3 6 5 7 7 5 2 2 9 5 2 5 2 3 2 2 1 2 1 2 3 2 2 6 5 5 6 7 7 5 6 6 5 4 3 5 4 3 5 4 4 4 5 6 7
11 9 8 5 2 2 2 1 1 4 5 3 4 5 5 4 5 5 6 5 3 1 1 2 2 2 3 3 3 4 6 5 5 6 6 4 4 6 6 5 4 5 5 3 5 7 5 5 3 4 4 5 6 7
4 3 6 2 1 1 1 2 3 3 5 4 5 3 3 4 3 2 2 3 3 3 2 4 3 3 2 4 3 3 4 2 2 5 7 7 5 5 3 3 4 2 5 4 5 4 5 4 4 4 5 4 4 5
2 7 2 1 1 2 2 3 3 4 4 4 4 2 3 3 3 2 2 4 3 3 5 4 3 2 2 3 3 5 7 5 2 5 10 9 5 5 5 5 4 5 5 4 5 4 3 2 4 5 5 4 5 6
3 2 2 2 2 2 3 3 4 4 3 2 4 2 2 2 3 2 2 3 5 6 4 3 5 5 4 2 6 3 4 6 2 4 4 3 4 4 4 5 5 6 5 3 4 4 3 3 5 5 5 5 5 5
1 3 3 3 4 3 3 3 1 2 2 2 3 4 3 4 2 2 4 5 4 1 3 5 5 3 3 5 3 2 3 4 2 4 2 5 5 3 4 5 6 5 5 3 4 4 4 4 5 5 5 6 5 5
3 4 3 4 5 5 5 4 3 2 4 6 3 4 1 2 2 3 3 2 3 4 2 3 4 5 4 4 4 5 6 5 2 3 3 5 5 4 5 5 5 3 4 4 3 5 4 5 5 5 5 6 8 6
4 5 6 7 4 4 5 6 6 7 6 4 5 2 2 1 3 2 3 5 4 4 3 3 3 3 3 5 5 3 0 3 2 3 3 5 5 5 5 6 5 3 5 5 5 6 5 5 6 7 6 8 8 8
3 5 5 5 3 5 4 2 4 3 3 3 3 1 1 2 1 3 2 3 4 4 4 4 2 2 4 3 2 7 6 4 5 4 7 9 8 8 5 6 8 4 5 6 5 5 5 5 6 5 5 5 6 6
5 4 6 7 4 3 3 4 2 4 4 3 4 4 2 1 1 1 3 5 5 5 3 3 3 0 3 3 4 5 5 5 7 12 12 10 9 8 9 8 8 12 7 6 5 5 5 5 5 5 6 6 5 6
5 4 3 6 3 2 3 4 3 1 3 4 2 2 2 3 3 4 5 7 6 3 3 3 4 3 5 4 3 7 3 7 10 13 12 7 6 5 4 4 6 6 5 5 6 5 7 6 6 5 6 6 5 7
5 4 2 5 5 6 5 3 2 3 4 4 4 2 3 3 4 5 6 6 6 6 5 5 4 3 2 3 5 7 5 5 5 7 7 6 6 5 4 4 6 7 5 5 5 4 3 1 2 3 7 7 6 6
1 3 3 3 3 3 3 6 4 6 4 4 4 3 3 3 2 2 4 4 5 5 4 4 3 3 1 3 4 6 5 5 10 12 11 8 7 6 5 5 5 5 5 6 6 4 6 8 7 8 9 10 11 10
1 3 3 4 1 4 4 2 2 2 1 1 1 1 3 3 2 2 3 5 5 6 7 7 3 3 4 6 7 7 6 9 8 9 11 8 8 6 7 6 5 6 9 10 9 9 11 10 8 9 9 11 11 10
3 1 1 0 0 1 2 1 1 2 2 2 1 0 2 2 2 1 1 4 3 4 6 6 6 7 10 10 9 7 8 9 12 12 14 12 9 8 7 7 9 11 13 11 10 10 12 12 10 11 11 10 10 10
Wind_Direction
320 321 320 312 314 318 317 313 311 311 299 304 308 311 320 309 218 220 294 24 67 298 293 309 9 340 28 118 220 1 339 17 322 269 275 341 289 21 302 273 322 191 182 211 196 212 222 360 32 28 304 254 285 325
320 324 326 320 322 323 317 311 311 310 299 293 301 303 311 306 206 181 268 47 22 228 275 329 281 257 251 262 154 199 148 193 316 301 33 310 336 278 306 286 220 262 199 248 196 286 212 239 341 349 352 26 359 15
323 320 320 322 321 316 313 310 304 303 298 292 292 299 306 313 203 193 312 292 306 320 291 235 228 213 142 105 150 144 215 12 74 3 335 294 283 343 310 292 349 249 171 202 224 307 291 86 39 12 340 339 342 354
314 315 316 315 317 323 322 314 299 307 298 289 288 291 294 295 257 176 221 325 58 70 307 302 81 151 158 125 129 87 119 80 100 73 288 258 273 297 242 248 275 268 202 281 270 39 60 37 358 298 291 310 1 18
310 318 312 315 316 319 321 315 302 299 294 292 282 279 286 288 194 129 26 14 53 103 312 303 310 258 143 135 121 116 122 110 113 147 223 244 263 339 276 249 262 33 5 202 220 96 157 274 253 294 13 29 14 353
312 317 320 318 315 322 319 315 313 307 302 289 278 282 287 310 125 111 269 195 178 203 263 291 344 245 134 138 147 135 119 74 118 173 221 234 234 125 274 274 99 45 354 314 59 348 281 275 355 44 33 7 343 327
307 304 307 310 316 320 317 320 321 313 316 313 296 295 281 152 117 155 116 108 144 155 217 272 291 113 150 140 147 129 142 147 171 206 235 250 237 188 260 239 6 161 205 142 169 353 354 27 35 34 10 329 326 7
311 309 309 307 312 312 312 321 328 321 318 310 303 286 143 105 111 89 20 53 61 230 264 287 279 215 171 141 159 95 176 160 182 237 234 241 262 189 259 97 298 287 10 27 18 15 46 23 15 8 355 11 6 354
312 310 307 309 313 312 312 306 308 320 325 308 125 113 104 43 94 90 113 63 57 10 278 193 247 265 169 195 134 179 109 203 280 229 235 233 246 225 61 46 231 54 51 25 6 2 34 358 18 6 25 8 354 359
321 319 318 318 315 314 317 301 298 301 310 130 85 89 107 91 126 135 84 87 44 213 252 255 234 267 344 64 107 133 155 229 236 218 196 211 248 106 177 199 79 49 41 40 26 3 26 17 16 32 6 2 35 12
319 319 317 316 315 314 313 317 273 340 159 197 80 77 25 150 226 212 165 224 165 216 202 228 242 231 47 294 136 193 204 249 255 222 189 214 55 314 141 93 79 60 47 30 42 45 30 44 45 8 7 50 32 14
316 315 314 312 314 316 315 333 140 125 65 101 112 104 92 243 233 237 202 195 213 245 177 196 204 147 90 55 233 221 249 199 252 185 227 134 318 239 80 75 73 62 45 55 47 32 39 51 33 14 48 54 34 352
318 313 313 309 316 323 314 318 130 127 99 35 215 142 194 150 207 223 194 191 201 215 168 140 146 133 134 208 227 245 226 225 197 226 129 103 216 87 71 65 68 68 68 59 49 36 54 40 27 47 41 35 38 358
321 309 305 304 306 313 329 157 148 140 165 201 196 164 225 184 239 206 239 119 259 143 144 135 111 175 196 191 243 239 267 174 250 65 71 219 103 93 78 67 65 71 71 64 40 29 73 40 48 43 40 16 10 12
318 313 302 289 268 261 263 188 164 199 238 212 224 236 219 243 280 265 150 113 273 128 114 96 81 193 218 261 278 295 255 258 55 97 182 110 86 83 79 60 60 71 77 63 25 23 78 52 58 31 47 40 22 6
321 306 257 228 260 182 212 121 80 92 177 276 221 260 257 269 314 39 47 114 278 136 109 110 135 196 212 224 203 237 40 288 141 149 124 102 95 92 91 88 72 77 95 86 40 26 33 59 59 38 36 63 35 16
313 252 344 105 101 119 126 91 119 183 256 233 245 235 258 278 245 246 96 354 312 191 143 171 186 170 65 291 209 5 315 330 145 98 88 104 115 113 103 97 88 68 76 111 93 51 31 39 40 62 39 48 47 21
249 312 322 143 127 90 51 53 65 238 244 243 253 262 239 295 218 212 177 41 348 272 168 220 82 201 202 177 127 315 101 290 102 108 108 110 124 127 123 114 95 82 35 34 70 99 64 38 19 38 60 32 58 21
299 311 320 156 116 96 82 271 120 256 243 252 248 257 256 181 31 282 254 150 218 267 153 242 234 247 118 104 96 98 137 260 122 113 110 115 114 115 122 124 133 123 99 61 22 49 64 67 27 36 63 39 53 30
295 285 290 164 17 109 114 245 290 266 274 287 287 270 272 240 232 205 152 180 193 138 192 246 273 25 103 166 132 134 181 236 151 136 136 143 147 157 171 167 177 168 145 127 66 64 27 8 18 41 74 57 59 52
193 187 146 123 98 126 215 187 227 245 285 285 322 324 278 282 297 299 141 153 193 194 222 212 220 281 348 109 112 171 180 276 352 169 159 157 167 123 133 170 228 162 119 120 92 74 52 10 347 42 57 85 51 93
121 124 107 194 143 163 266 214 271 306 272 288 287 254 308 312 259 241 208 171 205 194 215 241 150 183 303 194 157 280 149 130 101 88 119 135 147 159 188 194 135 91 89 106 112 99 86 29 46 28 22 77 79 59
159 114 128 162 160 194 265 210 228 207 261 299 306 250 208 233 263 261 240 233 207 216 211 164 175 169 198 271 132 136 155 144 246 125 156 147 123 121 109 111 124 116 103 96 107 123 101 85 75 64 23 13 91 70
189 152 163 198 205 208 209 203 214 256 299 271 255 253 228 201 170 244 248 236 250 177 135 159 153 159 173 165 148 195 197 150 191 127 179 118 109 119 120 92 86 89 109 98 110 93 77 61 65 81 54 16 18 91
174 179 207 194 215 198 204 176 190 178 248 209 252 252 255 38 193 239 243 21 36 57 57 148 152 191 181 159 165 164 224 132 206 156 123 112 112 94 88 93 95 107 136 104 74 90 81 73 35 86 73 48 15 46
218 186 200 201 199 210 203 186 201 212 225 215 239 306 33 22 268 281 47 354 48 45 50 3 356 28 56 142 170 125 236 115 359 121 123 115 120 133 131 123 108 66 58 60 62 76 71 77 59 45 65 71 43 26
226 192 200 227 231 227 255 253 206 210 221 241 148 139 231 235 238 52 305 4 24 12 12 5 335 204 166 201 169 134 151 149 213 152 102 79 72 56 75 138 121 118 80 72 64 56 61 75 78 56 47 73 91 65
259 214 190 202 213 237 267 302 218 220 214 180 142 211 209 64 92 288 334 14 5 331 8 352 325 150 179 146 110 131 119 144 107 95 94 83 76 70 63 70 73 71 69 53 52 41 47 47 61 60 55 46 42 65
240 243 178 189 151 239 238 246 260 251 43 5 14 78 92 78 30 9 345 343 326 316 13 3 359 348 80 284 164 153 163 126 122 113 105 104 92 92 109 119 108 102 95 85 58 67 63 61 56 41 38 59 36 83
240 238 214 208 196 207 237 241 11 55 72 99 122 135 97 81 45 14 3 354 350 3 342 330 325 355 114 126 86 70 64 103 118 129 136 129 136 149 140 119 126 138 146 141 142 133 48 50 49 49 68 60 32 41
257 212 204 229 249 242 2 78 75 62 52 35 11 63 95 117 118 48 7 327 305 304 327 332 318 65 77 126 114 110 98 84 90 102 112 116 109 97 92 87 81 69 63 70 78 47 94 65 55 63 60 58 51 45
208 221 233 225 203 83 96 98 112 95 86 64 69 98 163 153 95 56 358 345 357 22 9 354 332 50 26 34 52 52 51 114 118 121 116 114 107 106 93 86 77 78 76 63 55 58 58 63 59 60 59 59 53 48
165 144 170 309 55 74 125 154 148 139 164 150 152 113 55 62 97 76 62 15 26 9 2 18 46 62 69 72 79 71 58 78 75 73 76 73 73 88 97 80 73 76 77 73 65 61 60 61 62 64 64 61 56 48